period_start,C,m1,H,J0,J1,J2,J3,J4,J5,JA,JB,JC,JD,JJ,JK,JN,#
2016-12-22 00:01:38,0.15,1.38,0.00,20.04,24.60,28.44,15.05,48.95,1036.71,2038.05,3047.75,2749.21,3119.03,600.11,614.09,9.59,0000 0000 0000 0000 000000
2016-12-22 00:06:40,0.13,1.39,0.00,20.05,24.62,28.46,15.01,48.99,1036.67,2038.04,3045.02,2747.33,3116.97,599.93,613.84,9.64,0000 0000 0000 0000 000000
2016-12-22 00:11:41,0.14,1.40,0.00,20.03,24.62,28.44,14.99,49.03,1036.66,2038.04,3042.50,2745.52,3114.96,599.79,613.73,9.69,0000 0000 0000 0000 000000
2016-12-22 00:16:42,0.13,1.40,0.00,20.03,24.62,28.45,15.00,49.04,1036.66,2038.03,3040.05,2743.72,3112.89,599.72,613.62,9.74,0000 0000 0000 0000 000000
2016-12-22 00:21:43,0.13,1.41,0.00,20.04,24.63,28.45,15.09,49.07,1036.66,2038.04,3037.56,2741.91,3110.84,600.08,613.94,9.79,0000 0000 0000 0000 000000
2016-12-22 00:26:44,0.14,1.42,0.00,20.06,24.65,28.47,14.99,49.11,1036.67,2038.04,3035.04,2740.07,3108.77,599.75,613.63,9.84,0000 0000 0000 0000 000000
2016-12-22 00:31:46,0.13,1.43,0.00,20.09,24.65,28.53,15.08,49.06,1036.72,2038.01,3032.48,2738.22,3106.58,600.43,614.28,9.89,0000 0000 0000 0000 000000
2016-12-22 00:36:47,0.14,1.43,0.00,20.08,24.65,28.53,14.98,48.98,1036.75,2038.00,3029.85,2736.29,3104.40,599.81,613.71,9.94,0000 0000 0000 0000 000000
2016-12-22 00:41:48,0.14,1.44,0.00,20.09,24.67,28.52,15.08,49.07,1036.75,2038.01,3027.31,2734.46,3102.29,599.75,613.69,9.99,0000 0000 0000 0000 000000
2016-12-22 00:46:49,0.14,1.45,0.00,20.10,24.67,28.55,14.98,49.11,1036.81,2038.00,3024.68,2732.58,3100.16,599.72,613.58,10.04,0000 0000 0000 0000 000000
2016-12-22 00:51:51,0.14,1.46,0.00,20.10,24.67,28.53,14.99,49.02,1037.05,2038.00,3022.20,2730.71,3098.00,599.84,613.86,10.09,0000 0000 0000 0000 000000
2016-12-22 00:56:52,0.14,1.46,0.00,20.09,24.68,28.52,15.00,48.98,1037.10,2038.00,3019.78,2728.90,3095.95,600.05,614.15,10.14,0000 0000 0000 0000 000000
2016-12-22 01:01:53,0.14,1.47,0.00,20.12,24.69,28.56,15.12,49.08,1037.11,2037.99,3017.13,2726.97,3093.79,600.03,614.08,10.19,0000 0000 0000 0000 000000
2016-12-22 01:06:55,0.14,1.48,0.00,20.09,24.70,28.58,15.04,49.16,1037.10,2037.99,3014.53,2725.17,3091.67,599.89,613.95,10.24,0000 0000 0000 0000 000000
2016-12-22 01:11:56,0.14,1.48,0.00,20.12,24.70,28.54,15.01,49.25,1037.12,2037.99,3011.93,2723.28,3089.57,600.16,614.15,10.30,0000 0000 0000 0000 000000
2016-12-22 01:16:57,0.14,1.49,0.00,20.14,24.70,28.54,14.96,49.09,1037.12,2037.98,3009.37,2721.43,3087.49,599.99,614.00,10.35,0000 0000 0000 0000 000000
2016-12-22 01:21:59,0.13,1.50,0.00,20.12,24.70,28.51,15.02,49.08,1037.12,2037.99,3007.11,2719.62,3085.43,599.88,613.88,10.40,0000 0000 0000 0000 000000
2016-12-22 01:27:00,0.14,1.51,0.00,20.11,24.71,28.52,15.04,49.14,1037.12,2037.99,3004.58,2717.74,3083.28,600.04,614.10,10.45,0000 0000 0000 0000 000000
2016-12-22 01:32:02,0.13,1.51,0.00,20.11,24.72,28.53,15.00,49.02,1037.12,2037.98,3002.14,2715.86,3081.14,599.86,613.91,10.50,0000 0000 0000 0000 000000
2016-12-22 01:37:02,0.14,1.52,0.00,20.12,24.72,28.58,15.06,49.08,1037.12,2037.98,2999.69,2714.07,3079.09,600.01,614.06,10.55,0000 0000 0000 0000 000000
2016-12-22 01:42:04,0.13,1.53,0.00,20.10,24.72,28.53,15.03,49.00,1037.12,2037.95,2997.15,2712.26,3076.96,600.00,614.05,10.60,0000 0000 0000 0000 000000
2016-12-22 01:47:05,0.14,1.53,0.00,20.10,24.72,28.58,14.97,49.14,1037.13,2037.97,2994.67,2710.44,3074.95,599.75,613.87,10.65,0000 0000 0000 0000 000000
2016-12-22 01:52:06,0.13,1.54,0.00,20.10,24.72,28.58,15.07,49.16,1037.14,2037.92,2992.30,2708.66,3072.88,599.97,614.02,10.70,0000 0000 0000 0000 000000
2016-12-22 01:57:08,0.13,1.55,0.00,20.12,24.74,28.54,15.00,49.03,1037.14,2037.84,2989.98,2706.82,3070.76,600.35,614.39,10.75,0000 0000 0000 0000 000000
2016-12-22 02:02:09,0.12,1.55,0.00,20.12,24.74,28.59,15.09,49.05,1037.13,2037.67,2987.51,2705.03,3068.76,600.03,613.96,10.80,0000 0000 0000 0000 000000
2016-12-22 02:07:10,0.15,1.56,0.00,20.09,24.75,28.55,15.11,49.08,1037.13,2037.74,2984.92,2703.19,3066.78,600.17,614.23,10.85,0000 0000 0000 0000 000000
2016-12-22 02:12:12,0.11,1.57,0.00,20.12,24.75,28.55,14.98,49.02,1037.13,2037.66,2982.42,2701.43,3064.66,599.91,613.86,10.90,0000 0000 0000 0000 000000
2016-12-22 02:17:13,0.17,1.58,0.00,20.12,24.75,28.57,15.03,49.10,1037.13,2037.76,2979.87,2699.62,3062.69,599.93,613.85,10.95,0000 0000 0000 0000 000000
2016-12-22 02:22:14,0.13,1.58,0.00,20.12,24.75,28.59,15.02,49.03,1037.13,2037.88,2977.56,2697.87,3060.62,599.94,613.92,11.00,0000 0000 0000 0000 000000
2016-12-22 02:27:15,0.12,1.59,0.00,20.15,24.77,28.57,15.09,49.06,1037.13,2037.57,2974.97,2695.94,3058.52,600.36,614.38,11.05,0000 0000 0000 0000 000000
2016-12-22 02:32:17,0.10,1.60,0.00,20.15,24.77,28.57,14.96,49.02,1037.13,2037.48,2972.53,2694.19,3056.50,599.77,613.75,11.10,0000 0000 0000 0000 000000
2016-12-22 02:37:18,0.14,1.60,0.00,20.13,24.77,28.61,15.01,49.05,1037.13,2037.28,2970.08,2692.37,3054.34,599.76,613.45,11.15,0000 0000 0000 0000 000000
2016-12-22 02:42:19,0.14,1.61,0.00,20.13,24.77,28.62,15.05,49.23,1037.13,2037.26,2967.58,2690.58,3052.31,599.89,613.95,11.20,0000 0000 0000 0000 000000
2016-12-22 02:47:20,0.13,1.62,0.00,20.15,24.78,28.60,15.03,49.01,1037.13,2037.13,2965.04,2688.69,3050.25,600.22,614.20,11.25,0000 0000 0000 0000 000000
2016-12-22 02:52:22,0.12,1.62,0.00,20.16,24.79,28.61,15.03,49.06,1037.13,2037.06,2962.52,2686.95,3048.21,600.02,613.97,11.30,0000 0000 0000 0000 000000
2016-12-22 02:57:23,0.15,1.63,0.00,20.20,24.80,28.62,15.05,49.05,1037.13,2037.09,2960.13,2685.24,3046.16,600.17,614.05,11.35,0000 0000 0000 0000 000000
2016-12-22 03:02:24,0.13,1.64,0.00,20.16,24.80,28.64,15.02,49.02,1037.13,2037.03,2957.56,2683.39,3044.03,600.24,614.19,11.40,0000 0000 0000 0000 000000
2016-12-22 03:07:26,0.14,1.64,0.00,20.17,24.80,28.64,15.05,49.05,1037.13,2037.02,2955.13,2681.58,3041.96,599.91,613.83,11.45,0000 0000 0000 0000 000000
2016-12-22 03:12:27,0.13,1.65,0.00,20.19,24.81,28.64,15.08,49.04,1037.14,2037.02,2952.72,2679.84,3040.08,600.25,614.04,11.50,0000 0000 0000 0000 000000
2016-12-22 03:17:28,0.15,1.66,0.00,20.20,24.82,28.62,15.07,49.06,1037.14,2037.02,2950.26,2678.06,3037.97,600.16,613.95,11.55,0000 0000 0000 0000 000000
2016-12-22 03:22:30,0.13,1.67,0.00,20.21,24.82,28.65,15.01,49.09,1037.13,2037.04,2947.82,2676.22,3035.91,600.13,613.98,11.60,0000 0000 0000 0000 000000
2016-12-22 03:27:32,0.14,1.67,0.00,20.22,24.84,28.69,15.00,49.09,1037.13,2037.02,2945.47,2674.42,3033.79,600.31,614.13,11.65,0000 0000 0000 0000 000000
2016-12-22 03:32:33,0.15,1.68,0.00,20.26,24.85,28.67,15.09,49.11,1037.14,2037.00,2943.04,2672.51,3031.53,600.06,613.82,11.70,0000 0000 0000 0000 000000
2016-12-22 03:37:34,0.17,1.69,0.00,20.26,24.86,28.67,15.06,49.10,1037.15,2037.00,2940.22,2670.38,3029.11,600.06,613.87,11.75,0000 0000 0000 0000 000000
2016-12-22 03:42:35,0.18,1.70,0.00,20.27,24.87,28.71,15.07,49.14,1037.16,2037.00,2937.09,2668.11,3026.50,600.14,613.90,11.80,0000 0000 0000 0000 000000
2016-12-22 03:47:36,0.18,1.71,0.00,20.24,24.87,28.71,15.03,49.11,1037.16,2037.00,2934.03,2665.89,3023.95,599.93,613.58,11.85,0000 0000 0000 0000 000000
2016-12-22 03:52:38,0.17,1.72,0.00,20.21,24.87,28.71,15.03,49.07,1037.17,2037.00,2931.14,2663.75,3021.49,600.01,613.79,11.90,0000 0000 0000 0000 000000
2016-12-22 03:57:39,0.15,1.72,0.00,20.27,24.89,28.75,14.99,49.19,1037.17,2036.99,2928.40,2661.78,3019.30,599.68,613.41,11.95,0000 0000 0000 0000 000000
2016-12-22 04:02:40,0.14,1.73,0.00,20.26,24.90,28.72,15.04,49.14,1037.16,2036.98,2925.96,2659.92,3017.19,600.15,613.89,12.00,0000 0000 0000 0000 000000
2016-12-22 04:07:41,0.13,1.74,0.00,20.25,24.90,28.75,15.05,49.06,1037.14,2036.99,2923.51,2658.18,3015.19,600.20,613.97,12.05,0000 0000 0000 0000 000000
2016-12-22 04:12:43,0.14,1.75,0.00,20.26,24.90,28.74,15.02,49.05,1037.14,2036.96,2921.01,2656.40,3013.10,599.90,613.67,12.10,0000 0000 0000 0000 000000
2016-12-22 04:17:44,0.14,1.75,0.00,20.26,24.91,28.77,15.01,49.09,1037.14,2036.96,2918.58,2654.63,3011.18,600.26,613.98,12.15,0000 0000 0000 0000 000000
2016-12-22 04:22:45,0.13,1.76,0.00,20.26,24.92,28.75,15.04,49.08,1037.15,2036.97,2916.29,2652.93,3009.25,600.44,614.16,12.20,0000 0000 0000 0000 000000
2016-12-22 04:27:46,0.13,1.77,0.00,20.26,24.92,28.76,15.07,49.06,1037.23,2036.98,2913.97,2651.27,3007.44,600.22,613.98,12.25,0000 0000 0000 0000 000000
2016-12-22 04:32:47,0.13,1.77,0.00,20.24,24.92,28.72,15.02,49.12,1037.14,2036.96,2911.62,2649.50,3005.58,599.98,613.78,12.30,0000 0000 0000 0000 000000
2016-12-22 04:37:49,0.13,1.78,0.00,20.29,24.93,28.74,15.00,49.13,1037.15,2036.89,2909.27,2647.81,3003.61,599.75,613.48,12.35,0000 0000 0000 0000 000000
2016-12-22 04:42:50,0.14,1.79,0.00,20.30,24.94,28.80,15.03,49.06,1037.17,2036.90,2906.79,2646.05,3001.65,599.99,613.61,12.40,0000 0000 0000 0000 000000
2016-12-22 04:47:51,0.14,1.79,0.00,20.32,24.95,28.78,15.08,49.10,1037.19,2036.86,2904.33,2644.28,2999.60,600.19,613.85,12.45,0000 0000 0000 0000 000000
2016-12-22 04:52:53,0.14,1.80,0.00,20.34,24.95,28.81,15.10,49.19,1037.49,2036.74,2901.60,2642.37,2997.43,600.09,613.85,12.50,0000 0000 0000 0000 000000
2016-12-22 04:57:54,0.13,1.81,0.00,20.35,24.96,28.82,15.03,49.08,1037.47,2036.64,2899.17,2640.55,2995.34,599.66,613.44,12.55,0000 0000 0000 0000 000000
2016-12-22 05:02:55,0.10,1.82,0.00,20.35,24.97,28.83,15.02,49.01,1037.42,2036.40,2896.79,2638.76,2993.40,600.08,613.86,12.60,0000 0000 0000 0000 000000
2016-12-22 05:07:56,0.14,1.82,0.00,20.33,24.97,28.82,15.07,49.06,1037.42,2036.32,2894.44,2637.10,2991.50,600.28,614.00,12.66,0000 0000 0000 0000 000000
2016-12-22 05:12:57,0.14,1.83,0.00,20.32,24.97,28.80,15.01,49.07,1037.54,2036.32,2892.22,2635.48,2989.64,599.96,613.70,12.71,0000 0000 0000 0000 000000
2016-12-22 05:17:58,0.12,1.83,0.00,20.35,24.99,28.81,14.97,49.03,1037.61,2036.21,2889.96,2633.78,2987.77,599.97,613.75,12.76,0000 0000 0000 0000 000000
2016-12-22 05:22:59,0.11,1.84,0.00,20.34,25.00,28.82,15.02,49.17,1037.61,2036.08,2887.70,2632.16,2985.85,599.95,613.75,12.81,0000 0000 0000 0000 000000
2016-12-22 05:28:01,0.13,1.85,0.00,20.36,25.01,28.83,15.07,49.08,1037.61,2036.06,2885.45,2630.51,2983.99,600.02,613.84,12.86,0000 0000 0000 0000 000000
2016-12-22 05:33:02,0.14,1.85,0.00,20.35,25.02,28.84,14.94,49.05,1037.61,2036.02,2883.20,2628.80,2982.03,600.09,613.81,12.91,0000 0000 0000 0000 000000
2016-12-22 05:38:03,0.12,1.86,0.00,20.36,25.04,28.86,15.09,49.23,1037.61,2036.03,2880.96,2627.19,2980.18,600.38,614.13,12.96,0000 0000 0000 0000 000000
2016-12-22 05:43:05,0.13,1.87,0.00,20.35,25.05,28.88,15.04,49.22,1037.61,2036.01,2878.76,2625.51,2978.28,600.01,613.85,13.01,0000 0000 0000 0000 000000
2016-12-22 05:48:06,0.13,1.87,0.00,20.33,25.07,28.90,15.10,49.26,1037.61,2036.01,2876.57,2623.81,2976.41,600.23,614.11,13.06,0000 0000 0000 0000 000000
2016-12-22 05:53:07,0.12,1.88,0.00,20.39,25.07,28.92,15.04,49.16,1037.61,2036.00,2874.33,2622.36,2974.47,600.08,613.84,13.11,0000 0000 0000 0000 000000
2016-12-22 05:58:09,0.14,1.89,0.00,20.41,25.10,28.93,15.07,49.20,1037.59,2036.00,2872.15,2620.72,2972.61,600.18,613.93,13.16,0000 0000 0000 0000 000000
2016-12-22 06:03:10,0.14,1.90,0.00,20.40,25.10,28.94,15.01,49.26,1037.39,2036.00,2869.82,2619.03,2970.69,599.67,613.26,13.21,0000 0000 0000 0000 000000
2016-12-22 06:08:11,0.13,1.90,0.00,20.41,25.12,28.93,15.06,49.36,1037.37,2035.99,2867.50,2617.39,2968.76,599.92,613.48,13.26,0000 0000 0000 0000 000000
2016-12-22 06:13:12,0.14,1.91,0.00,20.40,25.12,28.97,15.09,49.21,1037.20,2035.99,2865.22,2615.70,2966.82,600.20,613.73,13.31,0000 0000 0000 0000 000000
2016-12-22 06:18:13,0.13,1.92,0.00,20.44,25.14,28.97,15.03,49.20,1037.19,2035.99,2862.96,2614.00,2964.94,599.86,613.33,13.36,0000 0000 0000 0000 000000
2016-12-22 06:23:15,0.13,1.92,0.00,20.44,25.15,28.99,15.08,49.32,1037.27,2035.97,2860.67,2612.38,2963.08,600.23,613.67,13.41,0000 0000 0000 0000 000000
2016-12-22 06:28:16,0.13,1.93,0.00,20.43,25.15,28.94,14.92,49.16,1037.33,2035.98,2858.43,2610.73,2961.23,599.88,613.38,13.46,0000 0000 0000 0000 000000
2016-12-22 06:33:17,0.13,1.94,0.00,20.43,25.16,29.03,15.11,49.30,1037.41,2035.95,2856.18,2609.06,2959.34,600.28,613.80,13.51,0000 0000 0000 0000 000000
2016-12-22 06:38:19,0.14,1.94,0.00,20.41,25.17,28.99,15.06,49.24,1037.59,2035.96,2853.88,2607.44,2957.43,600.18,613.85,13.56,0000 0000 0000 0000 000000
2016-12-22 06:43:20,0.12,1.95,0.00,20.39,25.17,29.00,15.07,49.29,1037.58,2035.82,2851.56,2605.73,2955.54,600.27,614.02,13.61,0000 0000 0000 0000 000000
2016-12-22 06:48:22,0.14,1.96,0.00,20.39,25.17,29.00,15.06,49.26,1037.60,2035.83,2849.35,2604.10,2953.64,599.87,613.63,13.66,0000 0000 0000 0000 000000
2016-12-22 06:53:23,0.13,1.96,0.00,20.42,25.19,29.00,14.99,49.15,1037.61,2035.82,2847.13,2602.51,2951.80,600.11,613.72,13.71,0000 0000 0000 0000 000000
2016-12-22 06:58:24,0.12,1.97,0.00,20.40,25.20,29.01,15.06,49.25,1037.61,2035.76,2844.85,2600.85,2949.95,600.02,613.75,13.76,0000 0000 0000 0000 000000
2016-12-22 07:03:26,0.13,1.98,0.00,20.45,25.20,28.99,15.07,49.21,1037.61,2035.82,2842.63,2599.28,2948.15,600.42,614.02,13.81,0000 0000 0000 0000 000000
2016-12-22 07:08:27,0.11,1.98,0.00,20.49,25.20,28.99,15.09,49.28,1037.61,2035.60,2840.29,2597.55,2946.16,600.28,613.87,13.86,0000 0000 0000 0000 000000
2016-12-22 07:13:27,0.14,1.99,0.00,20.46,25.20,29.04,15.09,49.22,1037.61,2035.39,2837.65,2595.63,2944.07,600.26,613.78,13.91,0000 0000 0000 0000 000000
2016-12-22 07:18:29,0.16,2.00,0.00,20.47,25.21,29.03,14.96,49.17,1037.61,2035.22,2834.84,2593.60,2941.83,599.84,613.38,13.96,0000 0000 0000 0000 000000
2016-12-22 07:23:30,0.15,2.01,0.00,20.47,25.22,29.04,14.97,49.22,1037.61,2035.29,2832.35,2591.79,2939.82,599.91,613.50,14.01,0000 0000 0000 0000 000000
2016-12-22 07:28:31,0.12,2.01,0.00,20.47,25.22,29.02,15.07,49.21,1037.61,2035.17,2830.02,2590.08,2937.87,599.99,613.58,14.06,0000 0000 0000 0000 000000
2016-12-22 07:33:32,0.13,2.02,0.00,20.47,25.22,29.05,15.02,49.18,1037.62,2035.25,2827.83,2588.51,2936.09,600.25,613.70,14.11,0000 0000 0000 0000 000000
2016-12-22 07:38:34,0.13,2.03,0.00,20.47,25.23,29.01,15.01,49.13,1037.61,2035.09,2825.54,2586.79,2934.17,599.94,613.54,14.16,0000 0000 0000 0000 000000
2016-12-22 07:43:35,0.12,2.03,0.00,20.49,25.25,29.06,15.09,49.22,1037.62,2035.04,2823.25,2585.14,2932.28,600.18,613.74,14.21,0000 0000 0000 0000 000000
2016-12-22 07:48:36,0.14,2.04,0.00,20.45,25.25,29.03,15.04,49.21,1037.62,2035.02,2821.06,2583.54,2930.42,600.21,613.83,14.26,0000 0000 0000 0000 000000
2016-12-22 07:53:37,0.13,2.05,0.00,20.45,25.27,29.08,14.90,49.30,1037.62,2035.03,2818.85,2581.87,2928.57,599.65,613.63,14.31,0000 0000 0000 0000 000000
2016-12-22 07:58:38,0.13,2.05,0.00,20.48,25.27,29.07,14.97,49.21,1037.62,2035.01,2816.67,2580.28,2926.74,600.02,613.63,14.36,0000 0000 0000 0000 000000
2016-12-22 08:03:40,0.13,2.06,0.00,20.49,25.29,29.08,14.98,49.48,1037.62,2035.00,2814.61,2578.66,2924.88,599.89,613.44,14.41,0000 0000 0000 0000 000000
2016-12-22 08:08:41,0.12,2.07,0.00,20.49,25.30,29.10,15.03,49.36,1037.62,2035.00,2812.44,2577.04,2923.07,600.01,613.55,14.46,0000 0000 0000 0000 000000
2016-12-22 08:13:42,0.14,2.07,0.00,20.51,25.32,29.12,15.05,49.41,1037.62,2035.00,2810.22,2575.43,2921.16,600.09,613.49,14.51,0000 0000 0000 0000 000000
2016-12-22 08:18:44,0.14,2.08,0.00,20.50,25.32,29.12,15.10,49.33,1037.62,2035.00,2808.01,2573.72,2919.30,599.90,613.45,14.56,0000 0000 0000 0000 000000
2016-12-22 08:23:45,0.12,2.09,0.00,20.52,25.34,29.13,15.10,49.39,1037.61,2035.00,2805.81,2572.18,2917.49,599.99,613.49,14.61,0000 0000 0000 0000 000000
2016-12-22 08:28:46,0.13,2.10,0.00,20.55,25.35,29.16,15.09,49.34,1037.62,2034.99,2803.62,2570.59,2915.65,600.14,613.57,14.66,0000 0000 0000 0000 000000
2016-12-22 08:33:47,0.16,2.10,0.00,20.54,25.36,29.15,15.03,49.34,1037.62,2034.99,2801.08,2568.80,2913.65,600.15,613.59,14.71,0000 0000 0000 0000 000000
2016-12-22 08:38:49,0.24,2.11,0.00,20.57,25.37,29.15,15.00,49.37,1037.63,2034.98,2797.19,2566.22,2910.74,600.02,613.39,14.76,0000 0000 0000 0000 000000
2016-12-22 08:43:50,0.22,2.13,0.00,20.60,25.37,29.16,15.08,49.25,1037.68,2034.98,2793.30,2563.51,2907.74,600.23,613.60,14.81,0000 0000 0000 0000 000000
2016-12-22 08:48:51,0.17,2.13,0.00,20.61,25.39,29.18,15.10,49.29,1037.71,2034.97,2790.34,2561.47,2905.41,600.34,613.63,14.86,0000 0000 0000 0000 000000
2016-12-22 08:53:53,0.28,2.14,0.00,20.63,25.40,29.18,15.06,49.35,1037.77,2034.97,2786.05,2558.67,2902.10,600.05,613.33,14.91,0000 0000 0000 0000 000000
2016-12-22 08:58:54,0.26,2.16,0.00,20.66,25.41,29.18,15.00,49.31,1037.89,2034.97,2781.31,2555.65,2898.64,599.86,613.35,14.96,0000 0000 0000 0000 000000
2016-12-22 09:03:55,0.25,2.17,0.00,20.64,25.42,29.22,15.01,49.27,1037.79,2034.95,2776.90,2552.68,2895.27,599.91,613.28,15.02,0000 0000 0000 0000 000000
2016-12-22 09:08:56,0.24,2.19,0.00,20.60,25.42,29.24,15.01,49.39,1037.97,2034.92,2772.73,2549.81,2892.16,599.98,613.50,15.07,0000 0000 0000 0000 000000
2016-12-22 09:13:58,0.20,2.20,0.00,20.65,25.42,29.25,15.06,49.42,1037.87,2034.79,2769.01,2547.27,2889.32,600.16,613.56,15.12,0000 0000 0000 0000 000000
2016-12-22 09:18:59,0.20,2.21,0.00,20.68,25.43,29.22,14.99,49.34,1037.81,2034.81,2765.79,2545.09,2886.83,599.85,613.16,15.17,0000 0000 0000 0000 000000
2016-12-22 09:24:00,0.20,2.22,0.00,20.67,25.45,29.22,15.05,49.47,1037.67,2034.84,2762.42,2542.84,2884.27,599.93,613.14,15.22,0000 0000 0000 0000 000000
2016-12-22 09:29:01,0.18,2.23,0.00,20.65,25.45,29.24,14.95,49.40,1037.72,2034.74,2759.02,2540.49,2881.65,599.58,612.85,15.27,0000 0000 0000 0000 000000
2016-12-22 09:34:03,0.21,2.24,0.00,20.65,25.45,29.21,15.13,49.41,1037.69,2034.76,2755.75,2538.26,2879.26,600.22,613.58,15.32,0000 0000 0000 0000 000000
2016-12-22 09:39:04,0.16,2.25,0.00,20.66,25.47,29.26,15.00,49.46,1037.81,2034.45,2752.44,2536.01,2876.79,600.25,613.51,15.37,0000 0000 0000 0000 000000
2016-12-22 09:44:05,0.17,2.26,0.00,20.70,25.47,29.24,15.03,49.36,1037.80,2034.26,2749.16,2533.62,2874.15,600.12,613.35,15.42,0000 0000 0000 0000 000000
2016-12-22 09:49:06,0.23,2.27,0.00,20.68,25.47,29.24,14.96,49.42,1037.86,2034.19,2745.35,2531.09,2871.29,599.83,613.21,15.47,0000 0000 0000 0000 000000
2016-12-22 09:54:08,0.23,2.28,0.00,20.59,25.49,29.30,15.03,49.42,1037.87,2034.06,2741.43,2528.43,2868.30,599.77,613.23,15.52,0000 0000 0000 0000 000000
2016-12-22 10:40:00,0.00,0.00,0.00,17.95,25.41,23.34,14.71,48.72,1037.18,2039.92,3620.77,3154.10,3582.85,587.37,605.61,0.01,0000 0000 0000 0000 000000
2016-12-22 10:45:01,0.01,0.00,0.00,17.76,24.99,24.15,15.08,49.22,1037.30,2037.97,3608.86,3146.87,3575.59,599.81,618.94,0.06,0000 0000 0000 0000 000000
2016-12-22 10:50:02,0.04,0.01,0.00,17.65,24.62,24.44,15.03,48.96,1037.48,2038.21,3604.22,3144.53,3572.91,599.76,619.18,0.11,0000 0000 0000 0000 000000
2016-12-22 10:55:03,0.09,0.02,0.00,17.60,24.30,24.61,15.18,48.92,1037.53,2039.11,3600.80,3142.79,3570.92,600.19,619.76,0.16,0000 0000 0000 0000 000000
2016-12-22 11:00:05,0.14,0.04,0.00,17.61,24.02,24.88,15.16,48.85,1037.58,2040.01,3597.51,3141.27,3569.24,599.94,619.56,0.21,0000 0000 0000 0000 000000
2016-12-22 11:05:07,0.18,0.04,0.00,17.68,23.79,25.20,15.10,48.64,1037.61,2040.91,3594.18,3139.63,3567.49,599.98,619.44,0.26,0000 0000 0000 0000 000000
2016-12-22 11:10:08,0.21,0.06,0.00,17.73,23.59,25.65,15.06,48.67,1037.61,2041.78,3590.63,3137.81,3565.36,599.63,618.98,0.31,0000 0000 0000 0000 000000
2016-12-22 11:15:10,0.24,0.06,0.00,17.84,23.43,25.70,15.12,48.52,1037.61,2042.47,3586.47,3135.55,3562.79,600.09,619.16,0.36,0000 0000 0000 0000 000000
2016-12-22 11:20:12,0.19,0.08,0.00,17.95,23.31,25.76,15.16,48.48,1037.61,2043.03,3581.88,3133.01,3559.77,600.20,619.10,0.41,0000 0000 0000 0000 000000
2016-12-22 11:25:14,0.26,0.09,0.00,18.04,23.21,25.90,15.16,48.62,1037.61,2043.84,3577.26,3130.35,3556.73,600.25,618.98,0.46,0000 0000 0000 0000 000000
2016-12-22 11:30:15,0.19,0.10,0.00,18.14,23.13,25.94,15.16,48.52,1037.61,2044.02,3572.69,3127.60,3553.57,600.18,618.61,0.51,0000 0000 0000 0000 000000
2016-12-22 11:35:17,0.26,0.11,0.00,18.23,23.07,26.03,15.20,48.41,1037.61,2044.67,3568.19,3124.90,3550.45,600.14,618.44,0.56,0000 0000 0000 0000 000000
2016-12-22 11:40:19,0.23,0.12,0.00,18.33,23.03,26.13,15.06,48.30,1037.61,2044.98,3562.80,3121.82,3546.86,599.85,618.09,0.61,0000 0000 0000 0000 000000
2016-12-22 11:45:20,0.23,0.14,0.00,18.43,23.00,26.30,15.06,48.33,1037.61,2045.00,3557.23,3118.42,3543.07,599.94,617.69,0.66,0000 0000 0000 0000 000000
2016-12-22 11:50:22,0.23,0.15,0.00,18.52,22.99,26.40,15.10,48.36,1037.61,2045.12,3551.65,3115.13,3539.45,600.10,617.84,0.71,0000 0000 0000 0000 000000
2016-12-22 11:55:24,0.32,0.16,0.00,18.55,22.99,26.49,15.07,48.36,1037.61,2045.72,3545.32,3111.28,3535.19,600.05,617.64,0.76,0000 0000 0000 0000 000000
2016-12-22 12:00:26,1.36,0.20,0.00,18.65,22.99,26.57,15.08,48.38,1037.61,2045.72,3518.52,3096.66,3519.10,599.74,617.16,0.81,0000 0000 0000 0000 000000
2016-12-22 12:05:28,1.96,0.30,0.00,18.72,23.01,26.64,15.06,48.27,1037.61,2045.61,3468.14,3070.00,3489.74,599.84,617.15,0.86,0000 0000 0000 0000 000000
2016-12-22 12:10:30,0.65,0.36,0.00,18.78,23.03,26.72,15.03,48.35,1037.61,2045.46,3441.72,3055.81,3473.89,599.66,616.76,0.91,0000 0000 0000 0000 000000
2016-12-22 12:15:31,0.27,0.38,0.00,18.85,23.06,26.78,15.08,48.37,1037.61,2045.22,3434.05,3051.19,3468.71,600.20,617.19,0.97,0000 0000 0000 0000 000000
2016-12-22 12:20:33,0.23,0.39,0.00,18.93,23.09,26.85,15.10,48.26,1037.61,2045.07,3428.18,3047.43,3464.35,600.27,617.09,1.02,0000 0000 0000 0000 000000
2016-12-22 12:25:35,0.20,0.40,0.00,18.96,23.13,26.92,15.08,48.12,1037.63,2045.03,3423.28,3044.25,3460.78,600.40,617.18,1.07,0000 0000 0000 0000 000000
2016-12-22 12:30:37,0.20,0.41,0.73,18.98,23.16,26.98,15.05,48.12,1037.64,2045.01,3418.53,3041.09,3457.14,599.89,616.62,1.12,0000 0000 0000 0000 000000
2016-12-22 12:35:39,0.21,0.42,1.00,19.05,23.20,27.05,15.06,48.11,1037.63,2045.00,3413.84,3037.97,3453.69,599.82,616.34,1.17,0000 0000 0000 0000 000000
2016-12-22 12:40:41,0.20,0.43,1.00,19.09,23.24,27.09,15.09,47.99,1037.63,2045.00,3409.27,3034.94,3450.28,599.90,616.40,1.22,0000 0000 0000 0000 000000
2016-12-22 12:45:43,0.19,0.44,1.00,19.11,23.28,27.15,15.06,47.96,1037.61,2044.99,3404.89,3031.93,3446.87,599.62,616.12,1.27,0000 0000 0000 0000 000000
2016-12-22 12:50:44,0.19,0.45,1.00,19.13,23.31,27.21,15.02,47.97,1037.63,2044.94,3400.41,3028.97,3443.51,599.70,616.11,1.32,0000 0000 0000 0000 000000
2016-12-22 12:55:46,0.16,0.46,1.00,19.16,23.35,27.27,15.09,48.04,1037.62,2044.58,3395.90,3025.89,3440.07,600.28,616.64,1.37,0000 0000 0000 0000 000000
2016-12-22 13:00:48,0.17,0.47,0.23,19.23,23.38,27.29,15.01,47.93,1037.63,2044.12,3391.43,3022.79,3436.55,599.96,616.26,1.42,0000 0000 0000 0000 000000
2016-12-22 13:05:49,0.20,0.48,0.00,19.22,23.42,27.35,15.12,47.96,1037.67,2044.02,3386.97,3019.73,3432.99,599.98,616.04,1.47,0000 0000 0000 0000 000000
2016-12-22 13:10:51,0.34,0.49,0.00,19.25,23.46,27.40,15.08,48.00,1037.72,2044.00,3380.04,3015.43,3428.25,600.25,616.46,1.52,0000 0000 0000 0000 000000
2016-12-22 13:15:53,0.50,0.51,0.00,19.27,23.50,27.44,15.06,48.02,1037.65,2044.00,3368.13,3008.60,3420.61,599.79,616.02,1.57,0000 0000 0000 0000 000000
2016-12-22 13:20:54,0.54,0.54,0.00,19.27,23.53,27.47,15.07,47.99,1037.63,2043.99,3355.45,3001.38,3412.45,599.96,616.06,1.62,0000 0000 0000 0000 000000
2016-12-22 13:25:56,0.92,0.58,0.00,19.29,23.57,27.53,15.00,48.09,1037.63,2043.85,3335.86,2990.54,3400.33,599.82,615.90,1.67,0000 0000 0000 0000 000000
2016-12-22 13:30:57,1.34,0.64,0.80,19.31,23.61,27.55,15.11,48.07,1037.63,2043.19,3301.85,2972.27,3380.20,599.81,615.89,1.72,0000 0000 0000 0000 000000
2016-12-22 13:35:59,1.10,0.70,1.00,19.34,23.64,27.58,15.04,48.07,1037.63,2043.02,3272.40,2956.32,3362.60,599.80,615.90,1.77,0000 0000 0000 0000 000000